This is the latest recevied weather packets stored in our database for station/object KB1RMA-4. If no packets are shown the sender has not sent any weather packets the latest 10 day(s).
| Time | Temp. | Humidity | Pressure | Rain* | Wind** | Luminosity | Snow |
|---|---|---|---|---|---|---|---|
| 1788624294 | 20° C | 70% | 1010.9 hPa | 0 mm | - | 233 W/m² | - |
| 1788623994 | 20.56° C | 70% | 1010.7 hPa | 0 mm | - | 144 W/m² | - |
| 1788623689 | 20.56° C | 69% | 1010.7 hPa | 0 mm | - | 167 W/m² | - |
| 1788623387 | 20.56° C | 69% | 1010.8 hPa | 0 mm | - | 201 W/m² | - |
| 1788623083 | 20.56° C | 69% | 1010.9 hPa | 0 mm | - | 241 W/m² | - |
| 1788622778 | 20.56° C | 69% | 1010.8 hPa | 0 mm | - | 186 W/m² | - |
| 1788622474 | 20.56° C | 68% | 1010.6 hPa | 0 mm | - | 208 W/m² | - |
| 1788622173 | 20.56° C | 70% | 1010.7 hPa | 0 mm | - | 221 W/m² | - |
| 1788621874 | 20.56° C | 69% | 1010.6 hPa | 0 mm | - | 213 W/m² | - |
| 1788621568 | 20° C | 70% | 1010.6 hPa | 0 mm | - | 207 W/m² | - |
| 1788621264 | 20.56° C | 69% | 1010.4 hPa | 0 mm | - | 156 W/m² | - |
| 1788620965 | 20° C | 70% | 1010.6 hPa | 0 mm | - | 196 W/m² | - |
| 1788620664 | 20° C | 70% | 1010.8 hPa | 0 mm | - | 166 W/m² | - |
| 1788620361 | 20.56° C | 69% | 1010.9 hPa | 0 mm | - | 110 W/m² | - |
| 1788620056 | 20.56° C | 69% | 1010.7 hPa | 0 mm | - | 100 W/m² | - |
| 1788619755 | 20.56° C | 68% | 1010.8 hPa | 0 mm | - | 118 W/m² | - |
| 1788619451 | 21.11° C | 67% | 1010.4 hPa | 0 mm | - | 207 W/m² | - |
| 1788619149 | 21.11° C | 67% | 1010.6 hPa | 0 mm | - | 293 W/m² | - |
| 1788618844 | 20.56° C | 66% | 1010.5 hPa | 0 mm | - | 315 W/m² | - |
| 1788618543 | 20.56° C | 66% | 1010.6 hPa | 0 mm | - | 206 W/m² | - |
| 1788618242 | 20.56° C | 67% | 1010.6 hPa | 0 mm | - | 144 W/m² | - |
| 1788617938 | 20.56° C | 66% | 1010.7 hPa | 0 mm | - | 122 W/m² | - |
| 1788617633 | 21.11° C | 67% | 1010.4 hPa | 0 mm | - | 196 W/m² | - |
| 1788617329 | 20.56° C | 66% | 1010.4 hPa | 0 mm | - | 235 W/m² | - |
| 1788617029 | 21.11° C | 66% | 1010.5 hPa | 0 mm | - | 351 W/m² | - |
* Rain latest hour (hover to see other rain measurements)
** Current wind speed in m/s (hover to see current wind gust speed)